CW9203 Weather Reports


Display with metric or nautical units.
time (UTC)temp
F
wind
direction
speed
MPH
gust
MPH
rain 1hr
in
rain 24hr
in
rain mn
in
humidity
%
barometer
mb
20260510184803 58 270 1.0 3.0 0.00 0.06 0.02 4 1014.7
20260510184304 58 178 1.0 3.0 0.00 0.06 0.02 4 1014.7
20260510181303 59 159 1.0 3.0 0.00 0.06 0.02 4 1014.1
20260510180303 58 194 1.0 3.0 0.00 0.06 0.02 4 1013.9
20260510173303 57 295 1.0 9.0 0.00 0.06 0.02 4 1013.8
20260510171803 56 271 1.0 6.0 0.00 0.06 0.02 4 1013.5
20260510170804 57 32 1.0 3.0 0.00 0.06 0.02 4 1013.4
20260510170303 57 218 0.0 3.0 0.00 0.06 0.02 4 1013.4
20260510165803 58 182 2.0 3.0 0.00 0.06 0.02 4 1013.3
20260510163804 58 171 1.0 9.0 0.00 0.06 0.02 4 1012.9
20260510161303 58 248 1.0 3.0 0.00 0.06 0.02 4 1012.7
20260510160304 58 176 1.0 6.0 0.00 0.06 0.02 4 1012.7
20260510155804 58 195 0.0 5.0 0.00 0.06 0.02 4 1012.5
20260510155306 58 222 3.0 7.0 0.00 0.06 0.02 4 1012.5
20260510152804 58 220 7.0 14.0 0.02 0.06 0.02 4 1012.5
20260510152306 57 171 2.0 3.0 0.02 0.06 0.02 4 1012.3
20260510144304 58 227 5.0 14.0 0.02 0.06 0.02 4 1012.2
20260510135804 58 239 1.0 3.0 0.00 0.06 0.00 4 1012.0
20260510135306 58 148 1.0 3.0 0.00 0.06 0.00 4 1012.2
20260510134803 58 218 1.0 5.0 0.00 0.06 0.00 4 1012.2
20260510134304 59 158 2.0 8.0 0.00 0.06 0.00 4 1012.0
20260510131803 58 199 2.0 8.0 0.00 0.06 0.00 4 1011.8
20260510131303 59 230 2.0 6.0 0.00 0.06 0.00 4 1011.7
20260510130304 58 244 1.0 3.0 0.00 0.06 0.00 4 1011.7
20260510125803 58 220 2.0 6.0 0.00 0.06 0.00 4 1011.6
20260510125306 58 229 2.0 8.0 0.00 0.06 0.00 4 1011.5
20260510124804 58 219 1.0 7.0 0.00 0.06 0.00 4 1011.6
20260510124303 58 160 1.0 3.0 0.00 0.06 0.00 4 1011.5
20260510123804 58 187 2.0 6.0 0.00 0.06 0.00 4 1011.5
20260510123304 58 194 2.0 6.0 0.00 0.06 0.00 4 1011.5
20260510122804 58 246 1.0 5.0 0.01 0.06 0.00 4 1011.4
20260510122306 58 242 0.0 3.0 0.01 0.06 0.00 4 1011.3
20260510121804 58 213 1.0 3.0 0.01 0.06 0.00 4 1011.3
20260510120303 58 232 3.0 10.0 0.01 0.08 0.00 4 1011.1
20260510113804 59 204 4.0 20.0 0.02 0.09 0.08 4 1011.0
20260510112804 59 248 1.0 5.0 0.02 0.08 0.07 4 1010.8
20260510112305 59 210 3.0 14.0 0.02 0.09 0.07 4 1010.8
20260510111804 59 205 5.0 12.0 0.02 0.12 0.07 4 1010.8
20260510111304 59 228 1.0 3.0 0.02 0.14 0.07 4 1010.7
20260510110304 59 225 2.0 5.0 0.02 0.16 0.07 4 1010.6
20260510105804 60 226 3.0 8.0 0.02 0.17 0.07 4 1010.5
20260510105306 60 180 3.0 9.0 0.02 0.17 0.07 4 1010.5
20260510103304 61 232 1.0 3.0 0.00 0.14 0.05 4 1010.2
20260510102804 61 225 1.0 7.0 0.00 0.14 0.05 4 1010.1
20260510102305 61 217 2.0 5.0 0.00 0.14 0.05 4 1010.1
20260510100804 62 189 3.0 13.0 0.00 0.15 0.05 4 1009.8
20260510094804 61 250 3.0 12.0 0.00 0.15 0.05 4 1009.4
20260510094304 61 221 3.0 12.0 0.00 0.15 0.05 4 1009.3
20260510092306 62 230 3.0 16.0 0.00 0.15 0.05 4 1009.2
20260510091804 62 215 4.0 14.0 0.00 0.15 0.05 4 1009.1
20260510091303 62 225 3.0 14.0 0.00 0.15 0.05 4 1009.0
20260510090304 62 214 5.0 12.0 0.00 0.15 0.05 4 1008.9
20260510085306 62 234 5.0 12.0 0.00 0.15 0.05 4 1008.9
20260510084803 62 232 5.0 14.0 0.00 0.16 0.05 4 1008.7
20260510082306 61 235 3.0 12.0 0.00 0.16 0.05 4 1008.6
20260510081804 61 234 5.0 13.0 0.00 0.16 0.05 4 1008.6
20260510081304 62 225 6.0 16.0 0.00 0.16 0.05 4 1008.6
20260510080804 61 231 7.0 12.0 0.00 0.16 0.05 4 1008.5
20260510075804 61 228 6.0 15.0 0.00 0.17 0.05 4 1008.4
20260510075306 62 231 5.0 15.0 0.00 0.17 0.05 4 1008.3
20260510074304 62 226 6.0 16.0 0.00 0.17 0.05 4 1008.3
20260510073803 62 204 3.0 9.0 0.00 0.17 0.05 4 1008.2
20260510073303 62 232 5.0 12.0 0.00 0.17 0.05 4 1008.2
20260510072803 62 233 4.0 8.0 0.00 0.19 0.05 4 1008.2
20260510070804 62 230 3.0 12.0 0.00 0.24 0.05 4 1008.1
20260510070303 62 223 5.0 9.0 0.00 0.25 0.05 4 1008.0
20260510065306 62 220 4.0 10.0 0.00 0.27 0.05 4 1007.8
20260510064304 62 231 6.0 13.0 0.00 0.27 0.05 4 1007.7
20260510063803 61 211 7.0 14.0 0.00 0.27 0.05 4 1007.6
20260510061304 62 233 6.0 14.0 0.00 0.28 0.05 4 1007.4
20260510055306 61 213 4.0 12.0 0.00 0.28 0.05 4 1007.2
20260510052804 61 222 6.0 10.0 0.00 0.29 0.05 4 1007.1
20260510052306 61 219 3.0 8.0 0.00 0.29 0.05 4 1007.0
20260510051804 61 234 4.0 10.0 0.00 0.29 0.05 5 1007.0
20260510051304 62 219 5.0 15.0 0.00 0.29 0.05 4 1007.0
20260510044304 61 240 3.0 8.0 0.00 0.29 0.05 22 1006.6
20260510043303 62 220 7.0 15.0 0.00 0.29 0.05 22 1006.6
20260510041804 62 224 5.0 14.0 0.00 0.29 0.05 18 1006.7
20260510041304 62 223 5.0 10.0 0.00 0.29 0.05 20 1006.7
20260510040804 62 224 4.0 12.0 0.00 0.29 0.05 21 1006.7
20260510040304 63 235 3.0 12.0 0.00 0.29 0.05 14 1006.6
20260510035804 62 220 6.0 13.0 0.00 0.29 0.05 21 1006.7
20260510035306 63 220 5.0 9.0 0.00 0.29 0.05 15 1006.7
20260510034804 64 227 3.0 8.0 0.00 0.29 0.05 4 1006.7
20260510033804 63 190 2.0 10.0 0.00 0.29 0.05 4 1006.7
20260510033303 64 238 6.0 13.0 0.00 0.29 0.05 4 1006.6
20260510032803 64 229 5.0 17.0 0.00 0.29 0.05 4 1006.7
20260510025804 63 225 5.0 15.0 0.00 0.29 0.05 4 1006.6
20260510025306 63 229 4.0 13.0 0.00 0.29 0.05 4 1006.6
20260510024303 63 211 6.0 15.0 0.00 0.29 0.05 4 1006.6
20260510023804 63 203 4.0 14.0 0.00 0.29 0.05 4 1006.6
20260510022306 65 232 7.0 14.0 0.00 0.29 0.05 4 1006.4
20260510021304 64 232 9.0 15.0 0.00 0.29 0.05 4 1006.4
20260510020304 64 229 7.0 14.0 0.00 0.29 0.05 4 1006.4
20260510015306 65 246 5.0 13.0 0.00 0.29 0.05 7 1006.2
20260510013304 63 214 4.0 12.0 0.01 0.29 0.05 9 1006.1
20260510011303 63 211 3.0 10.0 0.01 0.29 0.05 4 1006.1
20260510010803 63 215 7.0 16.0 0.01 0.29 0.05 6 1006.1
20260510005306 64 215 5.0 12.0 0.01 0.29 0.05 4 1006.3
20260510004803 64 191 5.0 12.0 0.01 0.29 0.05 4 1006.4
20260510003304 64 231 7.0 20.0 0.00 0.29 0.04 4 1006.5
20260510002804 64 218 6.0 13.0 0.00 0.29 0.04 4 1006.5
20260510001804 64 238 5.0 9.0 0.00 0.29 0.04 4 1006.8
20260510000804 63 220 3.0 14.0 0.01 0.30 0.04 4 1006.9
20260510000305 64 228 4.0 17.0 0.01 0.30 0.04 4 1007.1
20260509235804 64 231 7.0 15.0 0.01 0.30 0.04 4 1006.9
20260509233804 63 229 12.0 20.0 0.01 0.30 0.04 32 1006.9
20260509232804 63 226 7.0 13.0 0.01 0.30 0.04 26 1007.0
20260509231304 62 230 9.0 20.0 0.01 0.30 0.04 19 1007.0
20260509230304 62 237 3.0 9.0 0.00 0.29 0.03 23 1007.0
20260509225804 62 225 5.0 16.0 0.00 0.29 0.03 25 1007.0
20260509225306 62 220 4.0 17.0 0.00 0.29 0.03 31 1007.0
20260509224804 62 207 4.0 12.0 0.00 0.29 0.03 27 1007.0
20260509222306 61 231 9.0 15.0 0.00 0.29 0.03 6 1007.0
20260509221803 62 232 6.0 14.0 0.00 0.29 0.03 4 1007.0
20260509215804 62 218 3.0 13.0 0.00 0.33 0.03 4 1006.7
20260509215306 61 207 6.0 15.0 0.00 0.33 0.03 4 1006.7
20260509214804 61 214 5.0 12.0 0.00 0.33 0.03 4 1006.8
20260509214303 62 217 5.0 10.0 0.00 0.33 0.03 4 1006.9
20260509213804 62 232 5.0 12.0 0.00 0.33 0.03 4 1006.9
20260509212804 61 230 2.0 12.0 0.00 0.33 0.03 4 1006.8
20260509211804 60 242 4.0 10.0 0.00 0.33 0.03 4 1006.8
20260509211304 60 249 5.0 15.0 0.00 0.33 0.03 4 1006.8
20260509205306 60 230 7.0 14.0 0.00 0.33 0.03 4 1006.6
20260509204304 60 233 7.0 12.0 0.00 0.33 0.03 4 1006.7
20260509203304 59 235 3.0 9.0 0.00 0.33 0.03 4 1006.6
20260509202804 59 268 2.0 3.0 0.00 0.33 0.03 4 1006.6
20260509201803 58 251 2.0 6.0 0.00 0.33 0.03 4 1006.4
20260509201304 57 243 2.0 9.0 0.00 0.33 0.03 4 1006.4
20260509200803 57 266 2.0 5.0 0.00 0.33 0.03 4 1006.3
20260509195804 56 233 3.0 6.0 0.00 0.33 0.03 4 1006.2
20260509194804 55 262 1.0 3.0 0.00 0.33 0.03 4 1006.2
20260509194304 55 256 3.0 6.0 0.00 0.33 0.03 4 1006.2
20260509193304 55 236 2.0 7.0 0.00 0.33 0.03 4 1006.1
20260509191804 55 272 1.0 3.0 0.00 0.33 0.03 4 1006.1
20260509191303 55 241 2.0 3.0 0.00 0.33 0.03 4 1006.0